Flag for Germany Weather past 2 weeks in Heidenheim an der Brenz, Baden-Württemberg, Germany

Now
56 °F

Low clouds.


Feels Like: 56 °F
Forecast: 48 / 68 °F
Wind: 3 mph from East

Location: Stoetten

Current Time: Sep 15, 2014 at 11:31:10 AM

Latest Report: Sep 15, 2014 at 11:00 AM


Visibility: 5 mi

Pressure: 30.03 "Hg

Humidity: 95%

Dew point: 54 °F

Location of Heidenheim an der BrenzLocation

Historic Weather in Heidenheim an der Brenz — Graph

°F

Heidenheim an der Brenz temperature yesterday

Maximum temperature yesterday: 63 °F (at 5:00 PM)
Minimum temperature yesterday: 54 °F (at 3:00 AM)
Average temperature yesterday: 57 °F

Past Weeks' High & Low Weather Summary

 TemperatureHumidityPressure
High71 °F (Sep 7, 3:00 PM)100% (Aug 31, 2:00 PM)30.18 "Hg (Aug 31, 2:00 PM)
Low47 °F (Sep 11, 7:00 AM)51% (Sep 7, 3:00 PM)29.86 "Hg (Sep 6, 5:00 PM)
Average56 °F89%30.03 "Hg
* Reported Aug 31 10:00 AM — Sep 15 10:00 AM, Heidenheim an der Brenz, Weather by CustomWeather, © 2014

Note: Actual official high and low records may vary slightly from our data, if they occured in-between our weather recording intervals... More about our weather records

Advertising

Heidenheim an der Brenz weather history for previous 24 hours

 ConditionsComfort  
Time TempWeatherWind HumidityBarometerVisibility
10:00 AM
Sep 15
55 °FFog.3 mph97%30.02 "Hg3 mi
9:00 AM54 °FFog.2 mph99%30.01 "Hg0 mi
8:00 AM54 °FFog.3 mph99%30.02 "Hg1 mi
7:00 AM54 °FDrizzle. Dense fog.2 mph100%30.01 "Hg0 mi
6:00 AM54 °FFog.3 mph99%30.02 "Hg3 mi
5:00 AM54 °FLow clouds.5 mph99%30.02 "Hg0 mi
4:00 AM54 °FLow clouds.3 mph100%30.02 "Hg0 mi
3:00 AM54 °FLow clouds.2 mph100%30.02 "Hg0 mi
2:00 AM54 °FLow clouds.3 mph100%30.03 "Hg0 mi
1:00 AM54 °FLow clouds.3 mph99%30.03 "Hg1 mi
12:00 AM54 °FFog.3 mph98%30.04 "Hg2 mi
11:00 PM
Sep 14
54 °FFog.5 mph97%30.04 "Hg4 mi
10:00 PM55 °FFog.3 mph98%30.04 "Hg2 mi
9:00 PM55 °FPassing clouds.3 mph96%30.05 "Hg9 mi
8:00 PM57 °FPassing clouds.5 mph88%30.03 "Hg12 mi
7:00 PM59 °FOvercast.3 mph85%30.02 "Hg19 mi
6:00 PM61 °FOvercast.5 mph84%30.01 "Hg19 mi
5:00 PM63 °FPartly sunny.5 mph79%30.01 "Hg25 mi
4:00 PM62 °FPartly sunny.3 mph75%30.02 "Hg25 mi
3:00 PM61 °FPartly sunny.3 mph79%30.03 "Hg28 mi
2:00 PM61 °FScattered clouds.3 mph77%30.05 "Hg22 mi
1:00 PM59 °FPartly sunny.2 mph85%30.06 "Hg19 mi
12:00 PM57 °FFog.1 mph89%30.08 "Hg4 mi
11:00 AM56 °FFog.2 mph93%30.09 "Hg3 mi
Weather by CustomWeather, © 2014

See weather overviewHow to use our weather pages